Previsão horária em Alice Springs

Hoje, 25 Janeiro, Segunda-feira

Tempo Temperatura Precipitação Vento Pressão Humidade
00:00 +29°C° 0.2 mm 3 m/s 703 mmHg 54%
01:00 +29°C° 0.7 mm 3 m/s 703 mmHg 57%
02:00 +28°C° 0.7 mm 3 m/s 703 mmHg 60%
03:00 +27°C° 6 mm 8 m/s 702 mmHg 71%
04:00 +27°C° 0.1 mm 7 m/s 702 mmHg 70%
05:00 +27°C° 0.1 mm 7 m/s 702 mmHg 69%
06:00 +27°C° 0.1 mm 7 m/s 702 mmHg 68%
07:00 +29°C° 0 mm 8 m/s 703 mmHg 62%
08:00 +31°C° 0 mm 9 m/s 703 mmHg 55%
09:00 +33°C° 0 mm 9 m/s 703 mmHg 45%
10:00 +34°C° 0 mm 8 m/s 703 mmHg 42%
11:00 +35°C° 0 mm 7 m/s 703 mmHg 38%
12:00 +38°C° 0 mm 7 m/s 703 mmHg 34%
13:00 +38°C° 0 mm 7 m/s 702 mmHg 33%
14:00 +38°C° 0 mm 7 m/s 702 mmHg 32%
15:00 +37°C° 0 mm 5 m/s 702 mmHg 31%
16:00 +37°C° 0 mm 5 m/s 702 mmHg 32%
17:00 +36°C° 0 mm 5 m/s 701 mmHg 34%
18:00 +35°C° 0 mm 4 m/s 701 mmHg 35%
19:00 +34°C° 0 mm 5 m/s 701 mmHg 35%
20:00 +33°C° 0 mm 6 m/s 702 mmHg 34%
21:00 +32°C° 0 mm 8 m/s 702 mmHg 33%
22:00 +32°C° 0 mm 7 m/s 702 mmHg 33%
23:00 +30°C° 0 mm 7 m/s 702 mmHg 33%

Amanhã, 26 Janeiro, Terça-feira

Tempo Temperatura Precipitação Vento Pressão Humidade
00:00 +30°C° 0 mm 6 m/s 701 mmHg 33%
01:00 +29°C° 0 mm 6 m/s 701 mmHg 40%
02:00 +29°C° 0 mm 5 m/s 701 mmHg 46%
03:00 +28°C° 0 mm 5 m/s 701 mmHg 52%
04:00 +28°C° 0 mm 4 m/s 701 mmHg 53%
05:00 +28°C° 0 mm 3 m/s 702 mmHg 53%
06:00 +28°C° 0 mm 3 m/s 702 mmHg 54%
07:00 +30°C° 0 mm 3 m/s 702 mmHg 48%
08:00 +33°C° 0 mm 3 m/s 703 mmHg 43%
09:00 +35°C° 0 mm 3 m/s 703 mmHg 37%
10:00 +36°C° 0 mm 2 m/s 703 mmHg 34%
11:00 +37°C° 0 mm 2 m/s 703 mmHg 30%
12:00 +37°C° 0 mm 1 m/s 702 mmHg 27%
13:00 +38°C° 0 mm 2 m/s 702 mmHg 27%
14:00 +38°C° 0 mm 2 m/s 702 mmHg 26%
15:00 +38°C° 0 mm 3 m/s 701 mmHg 25%
16:00 +37°C° 0 mm 3 m/s 701 mmHg 29%
17:00 +36°C° 0 mm 3 m/s 702 mmHg 32%
18:00 +35°C° 0 mm 4 m/s 702 mmHg 35%
19:00 +34°C° 0.2 mm 4 m/s 702 mmHg 37%
20:00 +34°C° 0.2 mm 4 m/s 702 mmHg 40%
21:00 +33°C° 0.2 mm 4 m/s 703 mmHg 43%
22:00 +32°C° 0.1 mm 5 m/s 703 mmHg 44%
23:00 +32°C° 0.1 mm 5 m/s 703 mmHg 45%

Depois de amanhã, 27 Janeiro, Quarta-feira

Tempo Temperatura Precipitação Vento Pressão Humidade
00:00 +32°C° 0.1 mm 5 m/s 703 mmHg 46%
01:00 +30°C° 0 mm 4 m/s 703 mmHg 47%
02:00 +30°C° 0 mm 4 m/s 703 mmHg 49%
03:00 +30°C° 0 mm 4 m/s 703 mmHg 50%
04:00 +30°C° 0 mm 4 m/s 703 mmHg 49%
05:00 +29°C° 0 mm 4 m/s 703 mmHg 48%
06:00 +29°C° 0 mm 3 m/s 703 mmHg 47%
07:00 +32°C° 0 mm 5 m/s 704 mmHg 41%
08:00 +33°C° 0 mm 6 m/s 704 mmHg 35%
09:00 +34°C° 0 mm 7 m/s 704 mmHg 29%
10:00 +36°C° 0 mm 6 m/s 704 mmHg 27%
11:00 +38°C° 0 mm 6 m/s 704 mmHg 25%
12:00 +40°C° 0 mm 6 m/s 704 mmHg 23%
13:00 +40°C° 0 mm 5 m/s 703 mmHg 23%
14:00 +40°C° 0 mm 5 m/s 703 mmHg 22%
15:00 +40°C° 0 mm 5 m/s 702 mmHg 22%
16:00 +39°C° 0 mm 6 m/s 702 mmHg 25%
17:00 +38°C° 0 mm 7 m/s 702 mmHg 28%
18:00 +37°C° 0 mm 8 m/s 702 mmHg 31%
19:00 +36°C° 0 mm 6 m/s 702 mmHg 31%
20:00 +35°C° 0 mm 4 m/s 703 mmHg 31%
21:00 +35°C° 0 mm 2 m/s 703 mmHg 31%
22:00 +35°C° 0 mm 3 m/s 703 mmHg 32%
23:00 +34°C° 0 mm 3 m/s 703 mmHg 32%

28 Janeiro, Quinta-feira

Tempo Temperatura Precipitação Vento Pressão Humidade
00:00 +34°C° 0 mm 4 m/s 704 mmHg 32%
01:00 +33°C° 0 mm 4 m/s 703 mmHg 33%
02:00 +33°C° 0 mm 5 m/s 703 mmHg 34%
03:00 +32°C° 0 mm 5 m/s 703 mmHg 35%
04:00 +30°C° 0 mm 4 m/s 703 mmHg 37%
05:00 +30°C° 0 mm 4 m/s 703 mmHg 38%
06:00 +29°C° 0 mm 3 m/s 703 mmHg 39%
07:00 +32°C° 0 mm 4 m/s 704 mmHg 35%
08:00 +34°C° 0 mm 4 m/s 704 mmHg 30%
09:00 +36°C° 0 mm 4 m/s 705 mmHg 26%
10:00 +37°C° 0 mm 4 m/s 705 mmHg 25%
11:00 +40°C° 0 mm 4 m/s 704 mmHg 24%
12:00 +41°C° 0 mm 4 m/s 704 mmHg 23%
13:00 +41°C° 0 mm 4 m/s 703 mmHg 23%
14:00 +41°C° 0 mm 4 m/s 703 mmHg 23%
15:00 +41°C° 0 mm 4 m/s 702 mmHg 23%
16:00 +39°C° 0.1 mm 3 m/s 702 mmHg 26%
17:00 +38°C° 0.1 mm 3 m/s 702 mmHg 29%
18:00 +37°C° 0.1 mm 3 m/s 702 mmHg 31%
19:00 +36°C° 0 mm 2 m/s 702 mmHg 33%
20:00 +35°C° 0 mm 1 m/s 703 mmHg 35%
21:00 +34°C° 0 mm 1 m/s 703 mmHg 36%
22:00 +34°C° 0 mm 1 m/s 703 mmHg 37%
23:00 +34°C° 0 mm 1 m/s 703 mmHg 37%

29 Janeiro, Sexta-feira

Tempo Temperatura Precipitação Vento Pressão Humidade
00:00 +34°C° 0 mm 1 m/s 703 mmHg 37%
01:00 +34°C° 0 mm 2 m/s 703 mmHg 39%
02:00 +33°C° 0 mm 3 m/s 703 mmHg 41%
03:00 +33°C° 0 mm 4 m/s 703 mmHg 42%
04:00 +32°C° 0 mm 4 m/s 703 mmHg 43%
05:00 +32°C° 0 mm 4 m/s 703 mmHg 43%
06:00 +31°C° 0 mm 3 m/s 704 mmHg 44%
07:00 +34°C° 0 mm 4 m/s 704 mmHg 38%
08:00 +36°C° 0 mm 5 m/s 705 mmHg 32%
09:00 +38°C° 0 mm 6 m/s 705 mmHg 27%
10:00 +39°C° 0 mm 5 m/s 705 mmHg 25%
11:00 +40°C° 0 mm 5 m/s 705 mmHg 23%
12:00 +41°C° 0 mm 5 m/s 704 mmHg 21%
13:00 +42°C° 0 mm 5 m/s 704 mmHg 20%
14:00 +42°C° 0 mm 6 m/s 703 mmHg 19%
15:00 +42°C° 0 mm 6 m/s 703 mmHg 19%
16:00 +43°C° 0 mm 7 m/s 703 mmHg 19%
17:00 +41°C° 0 mm 7 m/s 703 mmHg 20%
18:00 +41°C° 0 mm 7 m/s 703 mmHg 20%
19:00 +40°C° 0 mm 7 m/s 703 mmHg 22%
20:00 +39°C° 0 mm 7 m/s 703 mmHg 23%
21:00 +38°C° 0 mm 6 m/s 704 mmHg 25%
22:00 +36°C° 0 mm 6 m/s 704 mmHg 28%
23:00 +35°C° 0 mm 6 m/s 704 mmHg 31%

30 Janeiro, Sábado

Tempo Temperatura Precipitação Vento Pressão Humidade
00:00 +34°C° 0 mm 6 m/s 704 mmHg 34%
01:00 +34°C° 0 mm 5 m/s 704 mmHg 35%
02:00 +33°C° 0 mm 5 m/s 703 mmHg 37%
03:00 +33°C° 0 mm 4 m/s 703 mmHg 39%
04:00 +33°C° 0 mm 5 m/s 703 mmHg 40%
05:00 +32°C° 0 mm 5 m/s 704 mmHg 42%
06:00 +32°C° 0 mm 5 m/s 704 mmHg 43%
07:00 +33°C° 0 mm 6 m/s 704 mmHg 40%
08:00 +35°C° 0 mm 7 m/s 705 mmHg 36%
09:00 +37°C° 0 mm 8 m/s 705 mmHg 32%
10:00 +38°C° 0 mm 7 m/s 705 mmHg 29%
11:00 +40°C° 0 mm 6 m/s 705 mmHg 26%
12:00 +41°C° 0 mm 5 m/s 705 mmHg 22%
13:00 +41°C° 0 mm 6 m/s 704 mmHg 22%
14:00 +41°C° 0 mm 6 m/s 704 mmHg 21%
15:00 +41°C° 0 mm 6 m/s 703 mmHg 21%
16:00 +41°C° 0 mm 5 m/s 703 mmHg 22%
17:00 +40°C° 0 mm 5 m/s 703 mmHg 24%
18:00 +38°C° 0 mm 4 m/s 703 mmHg 25%
19:00 +37°C° 0 mm 4 m/s 704 mmHg 26%
20:00 +37°C° 0 mm 4 m/s 704 mmHg 27%
21:00 +36°C° 0 mm 4 m/s 704 mmHg 28%
22:00 +36°C° 0 mm 4 m/s 704 mmHg 29%
23:00 +36°C° 0 mm 4 m/s 705 mmHg 29%
Mostrar mais

Necessitamos do seu Consentimento

A Meteoprog e os seus Fornecedores de Serviços podem armazenar e aceder a dados pessoais como cookies, identificadores do dispositivo ou outras tecnologias semelhantes existentes no seu dispositivo e processar estes dados para personalizar conteúdos e anúncios, assim como funcionalidades nas redes sociais e análise de tráfego.

  • Armazenar e/ou aceder a informações no seu dispositivo

    Os cookies, identificadores do dispositivo ou outras informações podem ser armazenados ou acedidos no seu dispositivo, para os fins acima indicados.

  • Anúncios e conteúdos personalizados, medição de anúncios e conteúdos, dados sobre o público-alvo e desenvolvimento de produtos

    Os anúncios e os conteúdos podem ser personalizados com base num perfil. Podem ser adicionados dados adicionais para uma maior personalização dos anúncios e dos conteúdos. A eficácia dos anúncios e dos conteúdos pode ser medida. Podem ser obtidas informações sobre o público que visualizou os anúncios e os conteúdos. Estes dados podem ser usados para desenvolver ou melhorar sistemas, softwares ou a experiência do utilizador.

Ao clicar em "Eu concordo”, permitirá o uso de cookies, identificadores do dispositivo e web beacons mencionados ou outras tecnologias semelhantes. As configurações do navegador do seu dispositivo podem ser alteradas.

Para certos fins, podem ser invocados interesses legítimos ao invés de consentimento. Pode ler mais informação sobre este assunto na nossa Política de Privacidade e Cookies.